Weather History for Harlingen, TX

Change the Weather History Date:

Wednesday, November 28, 2012

  Actual Average Record
Temperature  
Mean Temperature 62 °F 64 °F  
Max Temperature 75 °F 75 °F 89 °F (1948)
Min Temperature 49 °F 54 °F 33 °F (1959)
Degree Days  
Heating Degree Days 3 4  
Month to date heating degree days 8 46  
Since 1 July heating degree days 12 49  
Cooling Degree Days 0 3  
Month to date cooling degree days 172 152  
Year to date cooling degree days 4699 3928  
Growing Degree Days 12 (Base 50)    
Moisture  
Dew Point 51 °F    
Average Humidity 68    
Maximum Humidity 87    
Minimum Humidity 49    
Precipitation  
Precipitation 0.00 in 0.04 in 1.12 in (1963)
Month to date precipitation 0.35 1.43  
Year to date precipitation 13.59 23.85  
Sea Level Pressure  
Sea Level Pressure 30.30 in    
Wind  
Wind Speed 7 mph (North)    
Max Wind Speed 16 mph    
Max Gust Speed 20 mph    
Visibility 10 miles    
Events      
T = Trace of Precipitation, MM = Missing Value Source: NWS Daily Summary

Daily Weather History Graph

Daily Weather History Graph

Search for Another Location

Airport:

Trip Planner

Search our weather history database for the weather conditions in past years. The results will help you decide how hot, cold, wet, or windy it might be!

Date:

Astronomy

Nov. 28, 2012 Rise Set
Actual Time 6:59 AM CST 5:38 PM CST
Civil Twilight 6:34 AM CST 6:03 PM CST
Nautical Twilight 6:05 AM CST 6:31 PM CST
Astronomical Twilight 5:37 AM CST 6:59 PM CST
Moon 5:54 PM CST (11/28) 6:57 AM CST (11/28)
Length of Visible Light 11h 28m
Length of Day
10h 38m
Full, 100% of the Moon is Illuminated
Nov 28
Full
Dec 6
Last Quarter
Dec 13
New
Dec 19
First Quarter
Dec 28
Full

Hourly Weather History & Observations

Time (CST) Temp. Dew Point Humidity Pressure Visibility Wind Dir Wind Speed Gust Speed Precip Events Conditions
12:52 AM 54.0 °F 46.0 °F 75% 30.29 in 10.0 mi North 6.9 mph - N/A   Clear
1:52 AM 54.0 °F 46.9 °F 77% 30.30 in 10.0 mi North 8.1 mph - N/A   Clear
2:52 AM 51.1 °F 46.0 °F 83% 30.29 in 10.0 mi NNW 5.8 mph - N/A   Clear
3:52 AM 50.0 °F 46.0 °F 86% 30.30 in 10.0 mi WNW 6.9 mph - N/A   Clear
4:52 AM 50.0 °F 46.0 °F 86% 30.30 in 10.0 mi NNW 8.1 mph - N/A   Clear
5:52 AM 50.0 °F 46.0 °F 86% 30.32 in 10.0 mi NNW 8.1 mph - N/A   Clear
6:52 AM 50.0 °F 46.0 °F 86% 30.34 in 10.0 mi NNW 5.8 mph - N/A   Clear
7:52 AM 50.0 °F 46.9 °F 89% 30.37 in 10.0 mi WNW 5.8 mph - N/A   Clear
8:52 AM 55.9 °F 48.9 °F 77% 30.38 in 10.0 mi NNW 6.9 mph - N/A   Clear
9:52 AM 63.0 °F 52.0 °F 67% 30.39 in 10.0 mi North 6.9 mph - N/A   Clear
10:52 AM 69.1 °F 54.0 °F 58% 30.37 in 10.0 mi NNE 4.6 mph - N/A   Clear
11:52 AM 72.0 °F 53.1 °F 51% 30.35 in 10.0 mi North 4.6 mph - N/A   Clear
12:52 PM 73.0 °F 53.1 °F 49% 30.32 in 10.0 mi East 4.6 mph - N/A   Partly Cloudy
1:52 PM 73.0 °F 54.0 °F 51% 30.27 in 10.0 mi NE 12.7 mph - N/A   Mostly Cloudy
2:52 PM 72.0 °F 55.0 °F 55% 30.26 in 10.0 mi NE 12.7 mph - N/A   Mostly Cloudy
3:52 PM 72.0 °F 55.0 °F 55% 30.25 in 10.0 mi ENE 9.2 mph - N/A   Mostly Cloudy
4:52 PM 70.0 °F 55.9 °F 61% 30.26 in 10.0 mi ENE 9.2 mph - N/A   Partly Cloudy
5:52 PM 66.0 °F 57.0 °F 73% 30.26 in 10.0 mi NE 8.1 mph - N/A   Clear
6:52 PM 63.0 °F 55.9 °F 78% 30.26 in 10.0 mi NE 5.8 mph - N/A   Clear
7:52 PM 61.0 °F 55.9 °F 83% 30.26 in 10.0 mi NNE 6.9 mph - N/A   Clear
8:52 PM 59.0 °F 55.0 °F 87% 30.27 in 8.0 mi North 3.5 mph - N/A   Clear
9:52 PM 57.9 °F 53.1 °F 84% 30.27 in 10.0 mi North 4.6 mph - N/A   Clear
10:52 PM 57.0 °F 53.1 °F 87% 30.27 in 10.0 mi North 4.6 mph - N/A   Clear
11:52 PM 55.9 °F 53.1 °F 90% 30.24 in 9.0 mi NNE 4.6 mph - N/A   Clear